[[{"header":{"parameterUnit":"m.s-1","parameterCategory":1,"la1":30.2991,"la2":30.254,"lo1":-89.0895,"lo2":-89.0444,"dy":0.0017,"dx":0.0017,"nx":28,"ny":28,"refTime":"2023-08-09T03:00:00:Z","depth":0,"parameterNumber":2,"parameterNumberName":"U-component_of_WINDS"},"data":[0,0,0,0,0,0,0,0,0,0,0,0,0,0,0,0,0,0,0,0,0,0,0,0,0,0,0,0,0,0,0,0,0,0,0,0,0,0,0,0,0,0,0,0,0,0,0,0,0,0,0,0,0,0,0,0,0,0,3.2071,3.2072,0,3.2139,3.214,3.214,3.2141,3.214,3.2139,3.2138,3.221,3.2212,3.2215,0,0,0,0,0,0,0,0,0,0,0,0,0,3.1945,3.1948,3.2071,3.2072,3.2073,3.2139,3.214,3.2141,3.2141,3.214,3.2139,3.2138,3.2209,3.2212,3.2215,0,0,0,0,0,0,0,0,0,0,0,0,0,3.2005,3.1948,3.2071,3.2081,3.2082,3.2138,3.214,3.2141,3.2141,3.214,3.2138,3.2137,3.2208,3.2212,3.2216,3.2267,0,0,3.2228,3.223,0,0,0,0,0,0,0,0,3.2002,3.201,3.2078,3.208,3.2082,3.213,3.2122,3.2183,3.2141,3.2119,3.2138,3.2136,3.2184,3.219,3.2206,3.227,3.2274,3.2228,3.2231,3.2233,3.2234,0,0,0,0,0,0,0,3.1998,3.2007,3.2098,3.2079,3.2082,3.2083,3.209,3.2133,3.2158,3.2121,3.2121,3.2129,3.2185,3.2202,3.2208,3.2275,3.2228,3.2232,3.2234,3.2236,3.2388,3.2389,0,0,0,0,0,0,3.1991,3.2004,3.2096,3.21,3.2038,3.2086,3.2094,3.2116,3.2158,3.2163,3.213,3.2128,3.2196,3.2203,3.221,3.2275,3.2233,3.2236,3.2239,3.2386,3.2388,3.239,0,0,0,0,0,0,3.1988,3.1999,3.2093,3.2052,3.2064,3.209,3.2114,3.2118,3.2135,3.2165,3.2169,3.2142,3.2195,3.2204,3.2253,3.2277,3.2238,3.2242,3.2384,3.2387,3.2389,3.2403,0,0,0,0,0,0,3.1985,3.1998,3.2017,3.2052,3.2066,3.2134,3.2116,3.212,3.2142,3.214,3.2177,3.2182,3.2194,3.2247,3.2257,3.2282,3.2245,3.2382,3.2385,3.2388,3.2401,3.2406,3.241,0,0,0,0,0,3.198,3.2019,3.2018,3.2029,3.209,3.2135,3.2143,3.2156,3.2143,3.2163,3.2183,3.2181,3.2273,3.2252,3.2264,3.229,3.2381,3.2384,3.2388,3.2398,3.2405,3.241,0,0,0,0,0,0,3.1986,3.2023,3.2023,3.2074,3.2101,3.2135,3.2161,3.2162,3.2194,3.2192,3.2207,3.2215,3.2264,3.2282,3.2258,3.2343,3.2325,3.2331,3.233,3.2336,3.234,3.2335,3.2249,0,0,0,0,0,3.1993,3.2026,3.2057,3.2099,3.2112,3.2134,3.2154,3.2162,3.2191,3.2203,3.2226,3.2256,3.2292,3.2315,3.2349,3.2403,3.2412,3.2427,3.2432,3.2435,3.2441,3.2473,3.248,3.2401,3.2401,3.2401,0,0,3.2008,3.2032,3.2052,3.21,3.2123,3.2158,3.2144,3.2181,3.2208,3.2209,3.2257,3.2275,3.2309,3.2362,3.2386,3.2378,3.2465,3.244,3.2443,3.2446,3.2477,3.2485,3.2491,3.2404,3.2403,3.2403,0,0,3.2053,3.2074,3.2112,3.2135,3.2169,3.2184,3.2193,3.2227,3.2239,3.2287,3.229,3.2322,3.2383,3.2407,3.2428,3.2485,3.2485,3.2496,3.252,3.2551,3.2558,3.2563,3.2585,3.2592,3.2501,3.2501,3.2501,0,3.2067,3.2119,3.2131,3.2169,3.2191,3.2194,3.2234,3.2255,3.2299,3.2315,3.2305,3.2382,3.2406,3.2465,3.2479,3.2495,3.2507,3.2492,3.2555,3.2561,3.2567,3.2588,3.2595,3.2502,3.2502,3.2502,3.2502,0,3.2136,3.2172,3.2199,3.2241,3.2266,3.2304,3.2324,3.2348,3.2354,3.237,3.242,3.2448,3.2489,3.2504,3.2509,3.2564,3.2559,3.2552,3.2535,3.2575,3.2595,3.2603,3.2504,3.2503,3.2503,3.2503,0,0,3.2185,3.2235,3.2245,3.2265,3.2303,3.2332,3.2372,3.2411,3.2432,3.2463,3.2497,3.255,3.2544,3.2568,3.2577,3.2604,3.2649,3.2595,3.2596,3.2605,3.2713,3.2718,3.2727,3.265,3.2651,3.2653,3.2711,0,3.2236,3.2304,3.2318,3.2378,3.2413,3.2417,3.2452,3.248,3.2497,3.253,3.2549,3.2586,3.2575,3.259,3.2617,3.2638,3.2672,3.2634,3.2683,3.2685,3.2675,3.2737,3.2742,3.2796,3.2719,3.272,3.2721,0,3.2303,3.2335,3.2399,3.2435,3.245,3.2481,3.2519,3.255,3.2583,3.2593,3.262,3.2627,3.267,3.2651,3.2711,3.2685,3.2706,3.272,3.2723,3.2728,3.2705,3.2745,3.2813,3.2821,3.2733,3.2732,3.2731,0,3.2334,3.2393,3.244,3.2457,3.2499,3.2521,3.254,3.2572,3.2595,3.263,3.2645,3.2684,3.2706,3.2736,3.2754,3.2738,3.2814,3.2795,3.2825,3.2824,3.284,3.2839,3.2913,3.2853,3.2853,3.2853,3.2853,0,3.2388,3.2428,3.2455,3.2483,3.2528,3.2544,3.2588,3.2607,3.2636,3.2669,3.2676,3.2707,3.2728,3.2763,3.2778,3.2826,3.2836,3.2846,3.285,3.2846,3.2845,3.286,3.2857,3.2855,3.2854,3.2854,3.2854,0,3.2431,3.245,3.2501,3.2538,3.2548,3.2579,3.2611,3.264,3.2657,3.27,3.2711,3.2738,3.278,3.2801,3.2853,3.2863,3.2918,3.2919,3.2907,3.2908,3.2936,3.2934,3.3024,3.3037,3.2967,3.2968,3.2968,0,3.2464,3.2495,3.2535,3.2557,3.2577,3.2613,3.2638,3.2655,3.268,3.2722,3.2746,3.2788,3.2822,3.289,3.2915,3.2955,3.2958,3.2986,3.2964,3.296,3.2959,3.2957,3.2961,3.299,3.2991,3.2992,3.2992,0,3.2523,3.2531,3.2566,3.2604,3.2633,3.2664,3.2695,3.2714,3.2736,3.2765,3.2807,3.2834,3.2888,3.293,3.2973,3.2994,3.2998,3.2999,3.3008,3.3005,3.2997,3.3003,3.2918,3.2997,3.2996,3.2996,3.2996,3.2995,3.2562,3.259,3.2623,3.2662,3.2687,3.2716,3.2745,3.2767,3.2802,3.2847,3.2855,3.2901,3.2936,3.2993,3.3016,3.3053,3.3047,3.3059,3.3063,3.3066,3.3068,3.2991,3.3061,3.306,3.306,3.306,3.306,0,3.2622,3.2644,3.2679,3.2722,3.2753,3.2753,3.2788,3.2814,3.2854,3.2886,3.292,3.297,3.3012,3.3041,3.3083,3.3108,3.3111,3.3118,3.3117,3.3122,3.307,3.3059,3.3115,3.3115,3.3115,3.3115,3.3115,3.3115,3.2657,3.2704,3.2717,3.2778,3.28,3.2844,3.2864,3.2892,3.2917,3.2973,3.3007,3.3026,3.3057,3.3102,3.3141,3.3149,3.3164,3.3172,3.318,3.3131,3.3126,3.312,3.3109,3.3176,3.3176,3.3229,3.323,3.323]},{"header":{"parameterUnit":"m.s-1","parameterCategory":1,"la1":30.2991,"la2":30.254,"lo1":-89.0895,"lo2":-89.0444,"dy":0.0017,"dx":0.0017,"nx":28,"ny":28,"refTime":"2023-08-09T03:00:00:Z","depth":0,"parameterNumber":3,"parameterNumberName":"V-component_of_WINDS"},"data":[0,0,0,0,0,0,0,0,0,0,0,0,0,0,0,0,0,0,0,0,0,0,0,0,0,0,0,0,0,0,0,0,0,0,0,0,0,0,0,0,0,0,0,0,0,0,0,0,0,0,0,0,0,0,0,0,0,0,-0.0876,-0.0877,0,-0.0893,-0.0893,-0.0893,-0.0893,-0.0893,-0.0893,-0.0893,-0.091,-0.0911,-0.0912,0,0,0,0,0,0,0,0,0,0,0,0,0,-0.0846,-0.0846,-0.0876,-0.0877,-0.0877,-0.0893,-0.0893,-0.0893,-0.0894,-0.0893,-0.0893,-0.0893,-0.091,-0.0911,-0.0912,0,0,0,0,0,0,0,0,0,0,0,0,0,-0.086,-0.0846,-0.0876,-0.0879,-0.0879,-0.0893,-0.0893,-0.0894,-0.0894,-0.0893,-0.0893,-0.0893,-0.091,-0.0911,-0.0912,-0.0925,0,0,-0.0915,-0.0915,0,0,0,0,0,0,0,0,-0.0859,-0.0861,-0.0878,-0.0879,-0.0879,-0.0891,-0.0889,-0.0904,-0.0894,-0.0888,-0.0893,-0.0892,-0.0904,-0.0906,-0.091,-0.0926,-0.0926,-0.0915,-0.0916,-0.0916,-0.0916,0,0,0,0,0,0,0,-0.0858,-0.0861,-0.0883,-0.0878,-0.0879,-0.0879,-0.0881,-0.0892,-0.0898,-0.0889,-0.0889,-0.0891,-0.0904,-0.0909,-0.091,-0.0927,-0.0915,-0.0916,-0.0917,-0.0917,-0.0955,-0.0956,0,0,0,0,0,0,-0.0857,-0.086,-0.0882,-0.0883,-0.0868,-0.088,-0.0882,-0.0887,-0.0898,-0.0899,-0.0891,-0.089,-0.0907,-0.0909,-0.0911,-0.0927,-0.0916,-0.0917,-0.0918,-0.0955,-0.0955,-0.0956,0,0,0,0,0,0,-0.0856,-0.0859,-0.0882,-0.0872,-0.0875,-0.0881,-0.0887,-0.0888,-0.0892,-0.0899,-0.0901,-0.0894,-0.0907,-0.0909,-0.0921,-0.0928,-0.0918,-0.0918,-0.0954,-0.0955,-0.0956,-0.096,0,0,0,0,0,0,-0.0855,-0.0859,-0.0863,-0.0872,-0.0875,-0.0892,-0.0887,-0.0888,-0.0894,-0.0893,-0.0903,-0.0904,-0.0907,-0.092,-0.0922,-0.0929,-0.0919,-0.0954,-0.0955,-0.0955,-0.0959,-0.096,-0.0962,0,0,0,0,0,-0.0854,-0.0863,-0.0863,-0.0866,-0.0881,-0.0892,-0.0894,-0.0897,-0.0894,-0.0899,-0.0904,-0.0903,-0.0927,-0.0921,-0.0924,-0.0931,-0.0953,-0.0954,-0.0955,-0.0958,-0.096,-0.0961,0,0,0,0,0,0,-0.0855,-0.0865,-0.0865,-0.0877,-0.0884,-0.0892,-0.0898,-0.0899,-0.0907,-0.0906,-0.091,-0.0912,-0.0925,-0.0929,-0.0923,-0.0944,-0.094,-0.0941,-0.0941,-0.0943,-0.0944,-0.0943,-0.092,0,0,0,0,0,-0.0857,-0.0865,-0.0873,-0.0883,-0.0887,-0.0892,-0.0897,-0.0899,-0.0906,-0.0909,-0.0915,-0.0922,-0.0931,-0.0937,-0.0946,-0.096,-0.0962,-0.0966,-0.0967,-0.0968,-0.0969,-0.0978,-0.098,-0.0959,-0.0959,-0.0959,0,0,-0.0861,-0.0867,-0.0872,-0.0883,-0.0889,-0.0898,-0.0894,-0.0904,-0.0911,-0.0911,-0.0923,-0.0927,-0.0936,-0.0949,-0.0956,-0.0953,-0.0976,-0.0969,-0.097,-0.0971,-0.0979,-0.0981,-0.0983,-0.0959,-0.0959,-0.0959,0,0,-0.0872,-0.0877,-0.0886,-0.0892,-0.0901,-0.0904,-0.0907,-0.0915,-0.0918,-0.0931,-0.0931,-0.094,-0.0955,-0.0961,-0.0967,-0.0981,-0.0982,-0.0984,-0.0991,-0.0999,-0.1001,-0.1003,-0.1009,-0.1011,-0.0985,-0.0985,-0.0985,0,-0.0875,-0.0888,-0.0891,-0.0901,-0.0906,-0.0907,-0.0917,-0.0923,-0.0934,-0.0938,-0.0935,-0.0955,-0.0961,-0.0976,-0.098,-0.0984,-0.0988,-0.0983,-0.1,-0.1002,-0.1003,-0.101,-0.1012,-0.0986,-0.0986,-0.0986,-0.0986,0,-0.0892,-0.0902,-0.0908,-0.0919,-0.0926,-0.0935,-0.094,-0.0947,-0.0948,-0.0952,-0.0965,-0.0973,-0.0983,-0.0987,-0.0988,-0.1003,-0.1001,-0.1,-0.0995,-0.1006,-0.1012,-0.1014,-0.0986,-0.0986,-0.0986,-0.0986,0,0,-0.0905,-0.0918,-0.092,-0.0925,-0.0935,-0.0943,-0.0953,-0.0963,-0.0969,-0.0977,-0.0986,-0.0999,-0.0998,-0.1004,-0.1006,-0.1014,-0.1026,-0.1011,-0.1012,-0.1015,-0.1044,-0.1046,-0.1049,-0.1026,-0.1027,-0.1027,-0.1044,0,-0.0917,-0.0935,-0.0939,-0.0955,-0.0964,-0.0965,-0.0974,-0.0982,-0.0986,-0.0995,-0.1,-0.101,-0.1006,-0.101,-0.1018,-0.1023,-0.1033,-0.1022,-0.1036,-0.1036,-0.1034,-0.1052,-0.1053,-0.1069,-0.1046,-0.1046,-0.1047,0,-0.0935,-0.0943,-0.096,-0.097,-0.0974,-0.0982,-0.0992,-0.1,-0.1009,-0.1012,-0.1019,-0.1021,-0.1033,-0.1027,-0.1044,-0.1036,-0.1042,-0.1046,-0.1047,-0.1049,-0.1043,-0.1055,-0.1074,-0.1076,-0.105,-0.105,-0.105,0,-0.0943,-0.0959,-0.0971,-0.0976,-0.0987,-0.0993,-0.0998,-0.1006,-0.1013,-0.1022,-0.1027,-0.1037,-0.1043,-0.1051,-0.1056,-0.1051,-0.1072,-0.1067,-0.1076,-0.1076,-0.1081,-0.108,-0.1101,-0.1083,-0.1083,-0.1083,-0.1083,0,-0.0957,-0.0968,-0.0975,-0.0983,-0.0995,-0.0999,-0.1011,-0.1016,-0.1024,-0.1033,-0.1035,-0.1044,-0.1049,-0.1059,-0.1063,-0.1076,-0.1079,-0.1082,-0.1083,-0.1082,-0.1082,-0.1087,-0.1086,-0.1084,-0.1084,-0.1083,-0.1083,0,-0.0969,-0.0974,-0.0988,-0.0998,-0.1,-0.1009,-0.1018,-0.1026,-0.103,-0.1042,-0.1045,-0.1053,-0.1064,-0.107,-0.1084,-0.1087,-0.1103,-0.1103,-0.11,-0.11,-0.1109,-0.1109,-0.1135,-0.1139,-0.1117,-0.1117,-0.1117,0,-0.0978,-0.0986,-0.0997,-0.1003,-0.1009,-0.1019,-0.1026,-0.103,-0.1037,-0.1049,-0.1055,-0.1067,-0.1077,-0.1096,-0.1103,-0.1114,-0.1115,-0.1123,-0.1116,-0.1116,-0.1116,-0.1116,-0.1117,-0.1124,-0.1125,-0.1125,-0.1125,0,-0.0994,-0.0996,-0.1006,-0.1017,-0.1025,-0.1033,-0.1042,-0.1047,-0.1053,-0.1061,-0.1073,-0.1081,-0.1096,-0.1108,-0.112,-0.1126,-0.1127,-0.1127,-0.113,-0.1129,-0.1128,-0.113,-0.1104,-0.1126,-0.1126,-0.1126,-0.1126,-0.1126,-0.1005,-0.1013,-0.1022,-0.1033,-0.104,-0.1048,-0.1057,-0.1063,-0.1073,-0.1085,-0.1087,-0.11,-0.111,-0.1126,-0.1133,-0.1144,-0.1142,-0.1145,-0.1147,-0.1148,-0.1149,-0.1125,-0.1146,-0.1146,-0.1146,-0.1146,-0.1146,0,-0.1022,-0.1028,-0.1038,-0.105,-0.1059,-0.1059,-0.1069,-0.1077,-0.1088,-0.1097,-0.1107,-0.1121,-0.1133,-0.1141,-0.1153,-0.1161,-0.1162,-0.1164,-0.1164,-0.1165,-0.1149,-0.1146,-0.1163,-0.1163,-0.1163,-0.1163,-0.1163,-0.1163,-0.1032,-0.1046,-0.1049,-0.1067,-0.1073,-0.1086,-0.1091,-0.1099,-0.1107,-0.1123,-0.1133,-0.1138,-0.1147,-0.116,-0.1171,-0.1174,-0.1178,-0.1181,-0.1183,-0.1168,-0.1166,-0.1165,-0.1162,-0.1182,-0.1182,-0.1199,-0.1199,-0.1199]}]]